ARG1241 SARI-SABE

Flight info

Callsign ARG1241
Flight time 1h 31m
Altitude 34000
Route NAIDE2C NAIDE UT667 GEMSU UN785 GUA UZ129 PAGON PAGON8Q
Aircraft B738/M-SDE2E3FGHIRWXY/LB1

Departure

Time 2026-04-20 20:36
Airport Cataratas Del Iguazú International Airport (SARI)

Arrival

Time 2026-04-20 22:07
Airport Aeroparque Jorge Newbery (SABE)
Time Latitude Longitude Altitude Speed Heading
2026-04-20 20:18 -25.73226 -54.47675 928 ft 0 kts 25°
2026-04-20 20:29 -25.73229 -54.47677 930 ft 3 kts 24°
2026-04-20 20:29 -25.73254 -54.47685 931 ft 4 kts 356°
2026-04-20 20:29 -25.73277 -54.47677 930 ft 4 kts 311°
2026-04-20 20:30 -25.73284 -54.47665 927 ft 1 kts 295°
2026-04-20 20:32 -25.73283 -54.47670 930 ft 2 kts 295°
2026-04-20 20:32 -25.73262 -54.47716 927 ft 11 kts 297°
2026-04-20 20:32 -25.73223 -54.47808 928 ft 15 kts 285°
2026-04-20 20:33 -25.73227 -54.47942 927 ft 20 kts 265°
2026-04-20 20:33 -25.73240 -54.48106 930 ft 23 kts 264°
2026-04-20 20:33 -25.73254 -54.48259 928 ft 20 kts 265°
2026-04-20 20:33 -25.73267 -54.48403 927 ft 16 kts 266°
2026-04-20 20:34 -25.73241 -54.48509 926 ft 16 kts 293°
2026-04-20 20:34 -25.73188 -54.48640 927 ft 21 kts 294°
2026-04-20 20:34 -25.73104 -54.48766 927 ft 18 kts 312°
2026-04-20 20:34 -25.73114 -54.48809 928 ft 1 kts 178°
2026-04-20 20:35 -25.73122 -54.48793 926 ft 6 kts 117°
2026-04-20 20:35 -25.73234 -54.48526 927 ft 78 kts 115°
2026-04-20 20:35 -25.73568 -54.47724 928 ft 149 kts 114°
2026-04-20 20:35 -25.74091 -54.46501 1099 ft 196 kts 114°
2026-04-20 20:36 -25.74672 -54.45073 1809 ft 209 kts 112°
2026-04-20 20:36 -25.75257 -54.43666 2899 ft 199 kts 111°
2026-04-20 20:36 -25.75871 -54.42222 3395 ft 217 kts 111°
2026-04-20 20:36 -25.76529 -54.40626 3606 ft 238 kts 111°
2026-04-20 20:37 -25.77525 -54.39049 3750 ft 265 kts 141°
2026-04-20 20:37 -25.79263 -54.38231 4102 ft 285 kts 171°
2026-04-20 20:37 -25.81256 -54.38053 4809 ft 288 kts 177°
2026-04-20 20:37 -25.83261 -54.37935 5588 ft 289 kts 178°
2026-04-20 20:38 -25.85283 -54.37828 6321 ft 293 kts 178°
2026-04-20 20:38 -25.87329 -54.37708 7051 ft 295 kts 178°
2026-04-20 20:38 -25.89376 -54.37586 7809 ft 295 kts 178°
2026-04-20 20:38 -25.91427 -54.37480 8544 ft 297 kts 178°
2026-04-20 20:39 -25.93513 -54.37357 9170 ft 303 kts 177°
2026-04-20 20:39 -25.95637 -54.37212 9833 ft 307 kts 176°
2026-04-20 20:39 -25.97773 -54.37064 10515 ft 310 kts 175°
2026-04-20 20:39 -25.99975 -54.36860 10823 ft 328 kts 176°
2026-04-20 20:40 -26.02329 -54.36684 10962 ft 349 kts 176°
2026-04-20 20:40 -26.04805 -54.36519 11305 ft 362 kts 176°
2026-04-20 20:40 -26.07358 -54.36339 11736 ft 371 kts 176°
2026-04-20 20:40 -26.09941 -54.36166 12392 ft 373 kts 177°
2026-04-20 20:41 -26.12564 -54.35996 12847 ft 382 kts 177°
2026-04-20 20:41 -26.15241 -54.35817 13371 ft 388 kts 177°
2026-04-20 20:41 -26.17949 -54.35628 13969 ft 391 kts 177°
2026-04-20 20:41 -26.20678 -54.35434 14539 ft 395 kts 177°
2026-04-20 20:42 -26.23431 -54.35238 15106 ft 398 kts 178°
2026-04-20 20:42 -26.26197 -54.35417 15607 ft 400 kts 197°
2026-04-20 20:42 -26.28835 -54.36386 16210 ft 400 kts 202°
2026-04-20 20:42 -26.31467 -54.37415 16792 ft 403 kts 202°
2026-04-20 20:43 -26.34137 -54.38448 17328 ft 408 kts 202°
2026-04-20 20:43 -26.36833 -54.39475 17873 ft 411 kts 202°
2026-04-20 20:43 -26.39556 -54.40500 18395 ft 415 kts 202°
2026-04-20 20:43 -26.42303 -54.41526 18888 ft 417 kts 202°
2026-04-20 20:44 -26.45061 -54.42552 19395 ft 419 kts 202°
2026-04-20 20:44 -26.47834 -54.43581 19896 ft 421 kts 202°
2026-04-20 20:44 -26.49679 -54.44267 20221 ft 423 kts 202°
2026-04-20 20:44 -26.53439 -54.45666 20850 ft 427 kts 203°
2026-04-20 20:45 -26.55306 -54.46361 21184 ft 428 kts 203°
2026-04-20 20:45 -26.59087 -54.47769 21871 ft 430 kts 203°
2026-04-20 20:45 -26.60967 -54.48470 22166 ft 431 kts 204°
2026-04-20 20:45 -26.64785 -54.49901 22741 ft 434 kts 204°
2026-04-20 20:46 -26.66681 -54.50607 23157 ft 432 kts 204°
2026-04-20 20:46 -26.69519 -54.51662 23713 ft 430 kts 205°
2026-04-20 20:46 -26.72230 -54.53012 24043 ft 424 kts 216°
2026-04-20 20:46 -26.74715 -54.54775 24360 ft 424 kts 219°
2026-04-20 20:47 -26.77163 -54.56627 24686 ft 425 kts 219°
2026-04-20 20:47 -26.79604 -54.58493 25034 ft 426 kts 219°
2026-04-20 20:47 -26.82069 -54.60360 25394 ft 428 kts 218°
2026-04-20 20:47 -26.84545 -54.62212 25736 ft 429 kts 218°
2026-04-20 20:48 -26.87036 -54.64055 26052 ft 431 kts 218°
2026-04-20 20:48 -26.89553 -54.65903 26362 ft 433 kts 217°
2026-04-20 20:48 -26.92076 -54.67749 26667 ft 434 kts 217°
2026-04-20 20:48 -26.94611 -54.69602 26950 ft 436 kts 217°
2026-04-20 20:49 -26.97161 -54.71465 27230 ft 438 kts 217°
2026-04-20 20:49 -26.99715 -54.73333 27536 ft 439 kts 217°
2026-04-20 20:49 -27.02274 -54.75205 27835 ft 440 kts 217°
2026-04-20 20:49 -27.04844 -54.77088 28095 ft 442 kts 217°
2026-04-20 20:50 -27.07421 -54.78977 28362 ft 443 kts 217°
2026-04-20 20:50 -27.09968 -54.80846 28621 ft 445 kts 217°
2026-04-20 20:50 -27.12555 -54.82745 28966 ft 444 kts 217°
2026-04-20 20:50 -27.15174 -54.84668 29251 ft 445 kts 217°
2026-04-20 20:51 -27.17734 -54.86549 29574 ft 445 kts 216°
2026-04-20 20:51 -27.20325 -54.88454 30001 ft 443 kts 216°
2026-04-20 20:51 -27.22894 -54.90344 30403 ft 440 kts 216°
2026-04-20 20:51 -27.25447 -54.92223 30735 ft 439 kts 216°
2026-04-20 20:52 -27.28001 -54.94106 31006 ft 439 kts 216°
2026-04-20 20:52 -27.30553 -54.95987 31306 ft 439 kts 216°
2026-04-20 20:52 -27.33066 -54.97927 31636 ft 435 kts 223°
2026-04-20 20:52 -27.35091 -55.00397 31939 ft 429 kts 238°
2026-04-20 20:53 -27.36550 -55.03299 32300 ft 425 kts 245°
2026-04-20 20:53 -27.37870 -55.06267 32643 ft 424 kts 245°
2026-04-20 20:53 -27.39168 -55.09246 32934 ft 424 kts 245°
2026-04-20 20:53 -27.40469 -55.12223 33212 ft 424 kts 245°
2026-04-20 20:54 -27.41778 -55.15191 33528 ft 423 kts 245°
2026-04-20 20:54 -27.43094 -55.18148 33852 ft 422 kts 245°
2026-04-20 20:54 -27.44418 -55.21104 33955 ft 425 kts 245°
2026-04-20 20:54 -27.45756 -55.24084 33967 ft 427 kts 245°
2026-04-20 20:55 -27.48432 -55.30035 33968 ft 423 kts 245°
2026-04-20 20:55 -27.51070 -55.35912 33965 ft 420 kts 245°
2026-04-20 20:56 -27.53701 -55.41787 33967 ft 419 kts 245°
2026-04-20 20:56 -27.56326 -55.47656 33973 ft 419 kts 245°
2026-04-20 20:57 -27.58946 -55.53519 33989 ft 419 kts 245°
2026-04-20 20:57 -27.61998 -55.59113 33980 ft 425 kts 229°
2026-04-20 20:58 -27.64302 -55.61235 33965 ft 430 kts 218°
2026-04-20 20:58 -27.66789 -55.63111 33981 ft 431 kts 217°
2026-04-20 20:58 -27.71823 -55.66783 33973 ft 431 kts 217°
2026-04-20 20:59 -27.76847 -55.70478 33969 ft 430 kts 218°
2026-04-20 20:59 -27.79165 -55.72203 34967 ft 430 kts 214°
2026-04-20 20:59 -27.81668 -55.74077 33660 ft 435 kts 216°
2026-04-20 21:00 -27.84167 -55.75953 33820 ft 426 kts 218°
2026-04-20 21:00 -27.86641 -55.77813 33892 ft 429 kts 218°
2026-04-20 21:00 -27.91616 -55.81565 33991 ft 435 kts 218°
2026-04-20 21:01 -27.96706 -55.85405 33997 ft 438 kts 218°
2026-04-20 21:01 -28.01748 -55.89212 33985 ft 440 kts 218°
2026-04-20 21:02 -28.06838 -55.93057 33998 ft 439 kts 218°
2026-04-20 21:02 -28.11910 -55.96894 33992 ft 438 kts 218°
2026-04-20 21:03 -28.16977 -56.00732 33977 ft 437 kts 218°
2026-04-20 21:03 -28.22047 -56.04576 33987 ft 435 kts 219°
2026-04-20 21:04 -28.27041 -56.08369 34009 ft 435 kts 219°
2026-04-20 21:04 -28.32108 -56.12222 33987 ft 436 kts 219°
2026-04-20 21:05 -28.37122 -56.16039 33985 ft 438 kts 219°
2026-04-20 21:05 -28.42184 -56.19896 33989 ft 439 kts 219°
2026-04-20 21:06 -28.47265 -56.23772 33987 ft 441 kts 219°
2026-04-20 21:06 -28.52362 -56.27665 33993 ft 442 kts 218°
2026-04-20 21:07 -28.57480 -56.31579 33984 ft 444 kts 218°
2026-04-20 21:07 -28.62609 -56.35505 33983 ft 445 kts 218°
2026-04-20 21:08 -28.67757 -56.39451 33984 ft 447 kts 218°
2026-04-20 21:08 -28.72924 -56.43416 33981 ft 448 kts 218°
2026-04-20 21:09 -28.78094 -56.47390 33979 ft 449 kts 218°
2026-04-20 21:09 -28.83279 -56.51378 34003 ft 449 kts 219°
2026-04-20 21:10 -28.88473 -56.55378 33990 ft 451 kts 219°
2026-04-20 21:10 -28.93677 -56.59393 33993 ft 452 kts 220°
2026-04-20 21:11 -28.96273 -56.61399 34111 ft 454 kts 220°
2026-04-20 21:11 -28.98880 -56.63414 34438 ft 451 kts 220°
2026-04-20 21:11 -29.01473 -56.65416 34817 ft 447 kts 220°
2026-04-20 21:11 -29.04043 -56.67402 35200 ft 443 kts 220°
2026-04-20 21:12 -29.06587 -56.69370 35531 ft 441 kts 220°
2026-04-20 21:12 -29.09118 -56.71332 35783 ft 440 kts 221°
2026-04-20 21:12 -29.11650 -56.73297 36012 ft 440 kts 221°
2026-04-20 21:12 -29.14181 -56.75262 36254 ft 439 kts 221°
2026-04-20 21:13 -29.16670 -56.77195 36512 ft 438 kts 221°
2026-04-20 21:13 -29.19195 -56.79157 36738 ft 438 kts 221°
2026-04-20 21:13 -29.21714 -56.81115 36956 ft 438 kts 221°
2026-04-20 21:13 -29.24259 -56.83095 37197 ft 437 kts 221°
2026-04-20 21:14 -29.26774 -56.85051 37410 ft 437 kts 222°
2026-04-20 21:14 -29.29264 -56.86993 37411 ft 442 kts 222°
2026-04-20 21:14 -29.34368 -56.90976 37712 ft 443 kts 222°
2026-04-20 21:15 -29.36914 -56.92958 37962 ft 441 kts 222°
2026-04-20 21:15 -29.39458 -56.94944 37937 ft 445 kts 222°
2026-04-20 21:15 -29.44611 -56.98974 37960 ft 451 kts 222°
2026-04-20 21:16 -29.49822 -57.03052 37956 ft 455 kts 222°
2026-04-20 21:16 -29.55078 -57.07168 37968 ft 459 kts 222°
2026-04-20 21:17 -29.60352 -57.11301 37961 ft 458 kts 222°
2026-04-20 21:17 -29.65594 -57.15411 37962 ft 455 kts 222°
2026-04-20 21:18 -29.70803 -57.19506 37952 ft 453 kts 222°
2026-04-20 21:18 -29.76002 -57.23600 37947 ft 452 kts 222°
2026-04-20 21:19 -29.81191 -57.27692 37959 ft 452 kts 222°
2026-04-20 21:20 -29.88977 -57.33841 37960 ft 452 kts 222°
2026-04-20 21:20 -29.94169 -57.37948 37967 ft 453 kts 222°
2026-04-20 21:21 -29.99371 -57.42068 37963 ft 455 kts 222°
2026-04-20 21:21 -30.04596 -57.46212 37966 ft 456 kts 222°
2026-04-20 21:22 -30.09833 -57.50370 37973 ft 459 kts 223°
2026-04-20 21:22 -30.15098 -57.54556 37966 ft 460 kts 223°
2026-04-20 21:23 -30.20378 -57.58758 37958 ft 461 kts 223°
2026-04-20 21:23 -30.25709 -57.62925 37947 ft 467 kts 218°
2026-04-20 21:23 -30.28665 -57.64597 37948 ft 478 kts 208°
2026-04-20 21:24 -30.31840 -57.65792 37969 ft 482 kts 204°
2026-04-20 21:24 -30.38312 -57.67938 37970 ft 484 kts 204°
2026-04-20 21:25 -30.44786 -57.70112 37952 ft 485 kts 204°
2026-04-20 21:25 -30.51246 -57.72359 37950 ft 485 kts 204°
2026-04-20 21:26 -30.57711 -57.74630 37945 ft 485 kts 204°
2026-04-20 21:26 -30.64177 -57.76900 37970 ft 485 kts 205°
2026-04-20 21:27 -30.70639 -57.79169 37950 ft 486 kts 205°
2026-04-20 21:27 -30.77113 -57.81427 37949 ft 486 kts 205°
2026-04-20 21:28 -30.82499 -57.83304 37952 ft 485 kts 205°
2026-04-20 21:28 -30.88961 -57.85560 37946 ft 485 kts 205°
2026-04-20 21:29 -30.96482 -57.88193 37954 ft 485 kts 205°
2026-04-20 21:29 -31.02947 -57.90460 37955 ft 485 kts 205°
2026-04-20 21:30 -31.09411 -57.92730 37981 ft 485 kts 205°
2026-04-20 21:30 -31.14828 -57.94635 37970 ft 485 kts 205°
2026-04-20 21:31 -31.21291 -57.96911 37969 ft 486 kts 205°
2026-04-20 21:31 -31.27776 -57.99198 37968 ft 486 kts 205°
2026-04-20 21:32 -31.34253 -58.01484 37964 ft 486 kts 205°
2026-04-20 21:32 -31.40730 -58.03774 37958 ft 486 kts 205°
2026-04-20 21:33 -31.47205 -58.06067 37963 ft 486 kts 205°
2026-04-20 21:33 -31.53676 -58.08362 37955 ft 485 kts 205°
2026-04-20 21:34 -31.60133 -58.10654 37956 ft 484 kts 205°
2026-04-20 21:34 -31.66571 -58.12943 37960 ft 483 kts 205°
2026-04-20 21:35 -31.72995 -58.15231 37963 ft 482 kts 205°
2026-04-20 21:35 -31.79400 -58.17516 37965 ft 480 kts 205°
2026-04-20 21:36 -31.85790 -58.19798 37963 ft 479 kts 205°
2026-04-20 21:36 -31.92158 -58.22076 37974 ft 478 kts 205°
2026-04-20 21:37 -31.98515 -58.24354 37960 ft 477 kts 206°
2026-04-20 21:37 -32.04802 -58.26609 37933 ft 476 kts 206°
2026-04-20 21:37 -32.07991 -58.27758 37371 ft 481 kts 206°
2026-04-20 21:38 -32.11189 -58.28908 36842 ft 479 kts 206°
2026-04-20 21:38 -32.14372 -58.30052 36280 ft 478 kts 206°
2026-04-20 21:38 -32.17594 -58.31210 35704 ft 478 kts 206°
2026-04-20 21:38 -32.20736 -58.32341 35252 ft 476 kts 206°
2026-04-20 21:39 -32.23901 -58.33481 34787 ft 474 kts 206°
2026-04-20 21:39 -32.27047 -58.34616 34348 ft 472 kts 206°
2026-04-20 21:39 -32.30183 -58.35748 33898 ft 470 kts 206°
2026-04-20 21:39 -32.33310 -58.36878 33264 ft 471 kts 206°
2026-04-20 21:40 -32.36461 -58.38016 32634 ft 472 kts 205°
2026-04-20 21:40 -32.39587 -58.39138 32139 ft 469 kts 205°
2026-04-20 21:40 -32.42695 -58.40252 31717 ft 464 kts 205°
2026-04-20 21:40 -32.45770 -58.41355 31298 ft 460 kts 205°
2026-04-20 21:41 -32.48815 -58.42450 30902 ft 455 kts 205°
2026-04-20 21:41 -32.51833 -58.43537 30483 ft 450 kts 205°
2026-04-20 21:41 -32.54809 -58.44611 30087 ft 446 kts 204°
2026-04-20 21:41 -32.57762 -58.45678 29624 ft 441 kts 204°
2026-04-20 21:42 -32.60679 -58.46733 29196 ft 435 kts 204°
2026-04-20 21:42 -32.63554 -58.47773 28794 ft 429 kts 204°
2026-04-20 21:42 -32.66394 -58.48805 28357 ft 424 kts 204°
2026-04-20 21:42 -32.69201 -58.49823 27961 ft 419 kts 203°
2026-04-20 21:43 -32.71977 -58.50829 27568 ft 415 kts 203°
2026-04-20 21:43 -32.74726 -58.51827 27151 ft 411 kts 202°
2026-04-20 21:43 -32.77446 -58.52815 26742 ft 407 kts 202°
2026-04-20 21:43 -32.80144 -58.53796 26352 ft 404 kts 202°
2026-04-20 21:44 -32.82821 -58.54770 25958 ft 401 kts 202°
2026-04-20 21:44 -32.85480 -58.55737 25576 ft 397 kts 202°
2026-04-20 21:44 -32.88109 -58.56695 25197 ft 394 kts 202°
2026-04-20 21:44 -32.90719 -58.57646 24821 ft 390 kts 202°
2026-04-20 21:45 -32.93303 -58.58589 24446 ft 388 kts 202°
2026-04-20 21:45 -32.95879 -58.59529 24071 ft 385 kts 201°
2026-04-20 21:45 -32.98432 -58.60460 23705 ft 383 kts 201°
2026-04-20 21:45 -33.00983 -58.61348 23280 ft 382 kts 198°
2026-04-20 21:46 -33.03605 -58.61833 23000 ft 379 kts 190°
2026-04-20 21:46 -33.06210 -58.62130 22719 ft 374 kts 189°
2026-04-20 21:46 -33.08791 -58.62396 22461 ft 370 kts 189°
2026-04-20 21:46 -33.11337 -58.62658 22199 ft 367 kts 189°
2026-04-20 21:47 -33.13890 -58.62932 21957 ft 370 kts 189°
2026-04-20 21:47 -33.16468 -58.63218 21715 ft 374 kts 189°
2026-04-20 21:47 -33.19058 -58.63512 21463 ft 373 kts 189°
2026-04-20 21:47 -33.21601 -58.63803 21223 ft 370 kts 190°
2026-04-20 21:48 -33.24190 -58.64102 20910 ft 367 kts 190°
2026-04-20 21:48 -33.26686 -58.64391 20553 ft 365 kts 190°
2026-04-20 21:48 -33.29240 -58.64689 20185 ft 362 kts 190°
2026-04-20 21:48 -33.31740 -58.64981 19817 ft 360 kts 189°
2026-04-20 21:49 -33.34206 -58.65271 19449 ft 359 kts 189°
2026-04-20 21:49 -33.36685 -58.65562 19083 ft 357 kts 189°
2026-04-20 21:49 -33.39159 -58.65852 18693 ft 357 kts 189°
2026-04-20 21:49 -33.41622 -58.66142 18315 ft 356 kts 189°
2026-04-20 21:50 -33.44084 -58.66431 17889 ft 355 kts 189°
2026-04-20 21:50 -33.46531 -58.66718 17512 ft 353 kts 189°
2026-04-20 21:50 -33.48968 -58.67004 17125 ft 351 kts 188°
2026-04-20 21:50 -33.51389 -58.67288 16748 ft 349 kts 188°
2026-04-20 21:51 -33.53798 -58.67572 16378 ft 347 kts 188°
2026-04-20 21:51 -33.56192 -58.67853 16015 ft 345 kts 188°
2026-04-20 21:51 -33.58576 -58.68134 15651 ft 343 kts 188°
2026-04-20 21:51 -33.60943 -58.68413 15292 ft 342 kts 188°
2026-04-20 21:52 -33.63303 -58.68691 14930 ft 340 kts 188°
2026-04-20 21:52 -33.65661 -58.68970 14560 ft 339 kts 188°
2026-04-20 21:52 -33.68005 -58.69247 14198 ft 339 kts 188°
2026-04-20 21:52 -33.70352 -58.69524 13822 ft 338 kts 188°
2026-04-20 21:53 -33.72689 -58.69800 13435 ft 337 kts 188°
2026-04-20 21:53 -33.75017 -58.70075 13054 ft 335 kts 188°
2026-04-20 21:53 -33.77337 -58.70349 12695 ft 334 kts 188°
2026-04-20 21:53 -33.79639 -58.70622 12327 ft 332 kts 188°
2026-04-20 21:54 -33.81928 -58.70893 11971 ft 330 kts 188°
2026-04-20 21:54 -33.84204 -58.71162 11624 ft 328 kts 188°
2026-04-20 21:54 -33.86474 -58.71432 11271 ft 326 kts 188°
2026-04-20 21:54 -33.88728 -58.71699 10926 ft 325 kts 188°
2026-04-20 21:55 -33.90976 -58.71966 10572 ft 324 kts 188°
2026-04-20 21:55 -33.93211 -58.72224 10252 ft 322 kts 187°
2026-04-20 21:55 -33.95411 -58.72451 10132 ft 312 kts 187°
2026-04-20 21:55 -33.97546 -58.72664 9998 ft 304 kts 187°
2026-04-20 21:56 -33.99625 -58.72871 9910 ft 294 kts 187°
2026-04-20 21:56 -34.01659 -58.73075 9509 ft 297 kts 186°
2026-04-20 21:56 -34.03708 -58.73282 9199 ft 295 kts 187°
2026-04-20 21:56 -34.05753 -58.73490 8890 ft 294 kts 187°
2026-04-20 21:57 -34.07787 -58.73697 8574 ft 293 kts 187°
2026-04-20 21:57 -34.09817 -58.73904 8272 ft 291 kts 187°
2026-04-20 21:57 -34.11806 -58.74108 7984 ft 290 kts 186°
2026-04-20 21:57 -34.13811 -58.74312 7692 ft 289 kts 186°
2026-04-20 21:58 -34.15805 -58.74516 7385 ft 288 kts 186°
2026-04-20 21:58 -34.17800 -58.74719 7085 ft 287 kts 186°
2026-04-20 21:58 -34.19790 -58.74924 6794 ft 287 kts 186°
2026-04-20 21:58 -34.21784 -58.75129 6493 ft 287 kts 186°
2026-04-20 21:59 -34.23769 -58.75332 6196 ft 286 kts 186°
2026-04-20 21:59 -34.25748 -58.75535 5889 ft 284 kts 186°
2026-04-20 21:59 -34.27714 -58.75736 5615 ft 283 kts 186°
2026-04-20 21:59 -34.29675 -58.75937 5336 ft 282 kts 186°
2026-04-20 22:00 -34.31628 -58.75929 5037 ft 282 kts 166°
2026-04-20 22:00 -34.33342 -58.74893 4843 ft 274 kts 139°
2026-04-20 22:00 -34.34657 -58.73275 4647 ft 267 kts 129°
2026-04-20 22:00 -34.35855 -58.71563 4446 ft 266 kts 128°
2026-04-20 22:01 -34.37033 -58.69862 4243 ft 262 kts 127°
2026-04-20 22:01 -34.38177 -58.68169 4072 ft 257 kts 127°
2026-04-20 22:01 -34.39339 -58.66535 3909 ft 253 kts 129°
2026-04-20 22:01 -34.40471 -58.64973 3781 ft 241 kts 128°
2026-04-20 22:02 -34.41515 -58.63450 3527 ft 231 kts 126°
2026-04-20 22:02 -34.42550 -58.62000 3186 ft 225 kts 129°
2026-04-20 22:02 -34.43544 -58.60630 3071 ft 208 kts 129°
2026-04-20 22:02 -34.44488 -58.59320 3024 ft 202 kts 127°
2026-04-20 22:03 -34.45390 -58.58072 2997 ft 192 kts 128°
2026-04-20 22:03 -34.46255 -58.56913 2992 ft 181 kts 129°
2026-04-20 22:03 -34.47095 -58.55788 2998 ft 181 kts 129°
2026-04-20 22:03 -34.47945 -58.54657 3005 ft 179 kts 129°
2026-04-20 22:04 -34.48786 -58.53535 2472 ft 194 kts 129°
2026-04-20 22:04 -34.49723 -58.52242 1818 ft 202 kts 129°
2026-04-20 22:04 -34.50597 -58.51075 1918 ft 175 kts 129°
2026-04-20 22:04 -34.51326 -58.49857 1350 ft 186 kts 119°
2026-04-20 22:05 -34.52007 -58.48527 1013 ft 181 kts 123°
2026-04-20 22:05 -34.52745 -58.47364 809 ft 167 kts 127°
2026-04-20 22:05 -34.53372 -58.46254 768 ft 155 kts 121°
2026-04-20 22:05 -34.53920 -58.45226 702 ft 135 kts 120°
2026-04-20 22:06 -34.54398 -58.44330 485 ft 118 kts 122°
2026-04-20 22:06 -34.54833 -58.43531 296 ft 113 kts 126°
2026-04-20 22:06 -34.55284 -58.42727 96 ft 117 kts 124°
2026-04-20 22:06 -34.55731 -58.41928 27 ft 104 kts 123°
2026-04-20 22:07 -34.56075 -58.41304 25 ft 59 kts 124°
2026-04-20 22:07 -34.56186 -58.41106 28 ft 5 kts 122°
2026-04-20 22:07 -34.56198 -58.41067 27 ft 5 kts 110°
2026-04-20 22:07 -34.56211 -58.41023 26 ft 8 kts 108°
2026-04-20 22:08 -34.56228 -58.40933 24 ft 13 kts 99°
2026-04-20 22:08 -34.56235 -58.40847 24 ft 11 kts 93°
2026-04-20 22:08 -34.56236 -58.40787 24 ft 8 kts 90°
2026-04-20 22:08 -34.56235 -58.40773 24 ft 0 kts 82°
2026-04-20 22:09 -34.56233 -58.40764 24 ft 0 kts 72°
2026-04-20 22:09 -34.56231 -58.40760 24 ft 0 kts 63°
2026-04-20 22:10 -34.56228 -58.40754 24 ft 0 kts 57°